Wind_Speed
90 89 88 87 85 84 82 81 79 78 76 75 74 73 72 70 69 68 66 65 64 61 59 57 55 53 51 48 45 41 36 30 28 30 29 29 29 26 23 20 19 17 15 17 19 20 20 19 18 19 20 24 30 35 36 38 39 38 40 38 33 30
88 87 87 85 84 83 82 80 78 77 76 74 73 72 71 69 68 66 64 63 62 60 58 56 53 50 48 45 41 37 32 28 29 31 31 31 30 27 24 22 19 15 15 17 20 22 22 19 18 19 21 24 30 35 37 39 40 38 39 39 36 33
86 86 85 84 83 83 81 79 77 76 75 74 73 71 70 68 66 64 62 61 60 58 56 54 51 48 45 41 37 33 29 29 32 34 33 32 30 27 24 22 18 16 18 20 22 24 23 20 19 19 21 24 29 34 38 40 40 39 38 38 37 35
84 84 83 83 82 81 80 78 77 75 74 73 72 70 69 67 64 62 60 58 56 55 54 52 49 46 42 37 34 31 30 33 36 36 33 31 30 26 24 22 18 18 20 24 26 26 25 21 19 20 21 24 28 34 39 41 41 40 38 38 38 36
83 82 81 81 81 80 79 77 75 74 73 72 71 69 67 65 63 61 58 55 53 52 51 49 47 44 39 35 33 30 31 35 36 35 32 31 31 27 25 23 22 20 23 28 29 27 26 22 20 21 22 23 27 32 39 42 42 41 39 38 39 38
80 80 80 79 79 79 77 75 74 73 72 71 70 68 65 63 61 58 56 53 50 48 47 46 43 40 37 34 32 30 32 35 35 34 33 33 32 29 28 28 27 25 26 29 28 28 25 22 21 22 22 23 26 30 37 44 43 41 42 40 39 39
79 78 78 78 78 77 75 74 72 71 70 69 68 66 63 61 58 56 53 50 47 44 42 41 38 36 34 31 31 32 33 34 35 35 36 36 35 33 33 32 30 28 28 28 28 27 24 21 21 23 24 24 26 28 34 43 45 43 43 42 40 39
78 77 76 76 75 74 73 72 70 69 67 67 65 63 60 58 55 53 50 47 44 40 37 37 37 35 33 31 32 34 33 35 36 37 38 38 37 35 34 32 30 29 28 29 28 27 24 22 21 23 25 25 27 29 31 40 47 45 44 44 41 40
76 76 75 74 72 71 70 69 67 65 64 63 61 59 57 54 52 49 46 43 40 37 34 35 37 39 37 33 32 34 35 36 37 38 39 39 36 34 34 33 31 30 29 29 28 27 25 23 21 22 26 27 28 30 31 37 46 48 46 45 43 41
72 72 72 70 69 67 66 65 63 61 60 58 57 55 53 50 48 45 42 40 37 35 33 34 38 42 43 39 35 34 37 39 41 41 41 39 36 34 34 33 32 30 29 29 28 27 25 23 22 23 26 30 30 31 31 36 44 48 48 48 45 42
68 67 67 66 65 63 61 59 58 57 55 53 52 50 48 46 45 42 38 36 35 33 32 34 38 41 44 46 40 35 36 40 42 42 41 39 36 34 32 31 31 31 29 30 29 26 23 21 23 24 26 30 31 31 32 35 43 48 48 49 47 44
64 62 61 61 60 59 56 54 53 52 50 48 47 46 44 42 41 39 36 34 33 32 31 33 38 41 43 47 44 37 35 35 35 36 37 37 36 33 31 30 31 31 31 31 29 24 21 20 21 23 25 29 30 32 32 34 42 48 48 48 48 46
59 58 57 55 55 55 53 50 48 47 46 44 43 42 41 38 38 37 34 33 32 32 33 35 41 45 46 47 46 43 38 33 30 32 33 34 35 34 32 31 31 32 32 31 28 24 20 19 20 22 24 28 29 32 33 34 39 48 50 49 49 48
54 52 51 50 50 50 49 47 44 42 41 41 40 39 38 36 35 36 35 33 32 32 34 37 42 44 45 48 51 50 46 39 35 35 36 35 35 35 33 33 32 32 33 31 27 24 20 18 20 22 24 26 28 31 34 35 37 44 51 51 49 49
49 48 46 46 45 45 45 43 41 39 38 37 37 36 36 35 34 35 34 33 31 31 34 38 41 43 43 45 49 52 50 46 42 41 41 40 37 35 34 34 33 32 33 32 28 26 23 20 20 23 24 25 27 29 33 36 36 39 47 51 51 50
44 43 43 42 41 41 41 40 39 38 37 35 34 34 35 35 34 33 33 32 31 30 33 36 41 46 48 48 46 46 47 46 46 47 46 43 38 36 35 35 35 34 33 33 32 30 26 23 22 23 24 25 27 29 31 35 38 38 41 47 51 52
40 39 39 38 38 38 38 38 38 38 36 34 33 33 33 34 34 33 32 32 31 30 32 35 39 44 49 53 50 46 43 41 40 44 47 43 39 37 38 38 38 37 35 35 36 32 27 24 23 22 23 24 26 28 31 34 38 39 39 42 48 52
37 36 36 36 36 36 37 38 38 38 37 35 33 32 32 33 34 33 31 31 31 31 31 33 36 39 45 52 53 51 48 42 36 36 41 41 38 38 39 39 40 38 36 38 38 33 28 26 25 24 24 24 25 27 30 33 37 40 40 40 43 48
33 33 34 34 34 35 37 38 38 38 37 35 34 32 32 31 32 33 32 31 31 31 31 32 33 36 40 45 51 53 50 45 41 37 37 38 37 39 40 41 42 38 35 38 39 34 31 30 28 27 26 25 24 26 28 31 35 39 40 40 40 43
31 32 32 33 34 35 37 37 38 37 36 36 35 33 32 31 31 32 32 31 31 32 32 31 32 33 36 40 46 52 51 47 46 42 37 37 38 39 41 42 41 38 36 37 37 35 33 32 31 29 27 24 23 24 26 28 32 37 39 40 40 40
31 32 32 33 34 35 37 38 38 37 36 36 35 34 33 32 31 31 32 32 31 32 32 32 32 33 34 36 40 47 52 52 51 47 41 38 39 41 42 41 40 39 38 37 36 37 36 33 33 31 28 27 25 24 27 29 31 35 37 39 39 40
32 32 33 33 34 35 37 38 38 37 37 36 36 35 34 33 32 31 32 32 32 32 32 32 32 33 33 34 35 38 45 51 53 53 48 41 41 43 43 42 42 41 40 39 38 39 39 37 36 34 32 31 29 27 29 30 32 34 37 38 39 40
34 33 33 34 35 36 37 38 38 37 37 36 36 36 35 34 33 32 32 32 32 32 32 32 32 33 33 33 33 34 38 44 48 53 53 46 43 46 46 45 45 44 43 42 39 38 39 38 37 37 36 34 33 31 31 32 33 34 36 38 39 40
35 34 34 35 36 36 37 38 38 38 37 37 37 37 36 35 34 33 32 32 33 32 32 33 33 33 34 33 34 34 35 39 44 49 53 49 46 48 49 47 46 46 45 44 40 38 40 41 39 39 39 38 37 34 33 36 35 34 36 38 39 39
37 36 36 36 37 37 38 38 38 38 38 38 38 38 37 36 35 34 33 33 33 33 33 34 34 34 35 35 35 36 36 38 42 47 52 51 48 50 52 51 50 49 48 47 44 42 43 43 41 42 43 43 42 39 37 37 37 36 35 38 39 40
39 39 37 37 38 38 38 39 39 39 38 38 39 39 39 38 37 36 35 34 34 34 35 35 36 36 36 37 37 38 39 40 42 46 52 53 51 52 53 54 54 53 52 51 50 50 49 46 42 43 44 43 45 45 42 39 39 38 36 37 39 40
40 40 39 38 39 39 40 40 40 39 39 39 40 40 40 39 38 37 36 36 36 36 36 36 37 38 38 39 39 40 41 43 44 46 51 54 54 54 53 54 57 58 57 57 56 56 56 53 48 47 46 44 45 47 46 41 41 42 40 38 39 40
40 40 40 40 40 40 41 41 41 40 40 39 40 41 41 41 40 39 38 38 38 37 38 38 39 39 40 41 41 42 43 45 46 47 50 53 55 56 55 54 57 60 61 61 60 59 58 57 54 53 52 50 50 51 50 46 43 43 45 43 42 42
41 40 41 41 41 41 41 42 42 41 41 40 41 42 42 42 42 41 40 40 40 40 39 40 40 41 42 43 43 44 45 46 48 49 52 54 56 57 58 56 56 60 62 63 63 63 61 59 57 57 55 55 56 55 55 52 47 45 47 46 45 45
43 41 41 42 42 42 42 43 43 43 42 42 42 42 43 43 43 43 43 42 42 42 42 42 42 43 43 44 45 46 46 47 49 51 53 56 58 58 60 59 57 58 62 64 65 65 65 63 61 61 59 58 59 58 57 56 53 50 49 48 48 47
44 43 42 43 43 43 43 44 44 44 44 43 43 43 43 44 44 44 44 44 44 43 44 44 44 45 45 46 46 47 48 49 50 51 53 56 59 61 62 62 60 59 60 63 65 67 67 67 66 65 64 62 61 60 59 58 57 54 51 51 51 49
46 45 44 44 44 45 44 44 45 46 45 45 45 45 45 45 45 46 46 46 46 46 46 46 46 47 48 48 48 49 49 50 51 52 54 55 58 61 64 65 65 64 62 63 64 66 67 69 69 69 68 65 61 59 59 59 58 55 53 53 53 52
48 47 47 46 46 46 46 46 46 46 46 46 46 47 47 46 46 46 47 47 47 48 48 48 48 49 50 51 51 51 51 52 52 53 54 56 57 60 62 65 67 67 67 66 66 66 66 67 68 69 69 66 61 56 56 58 59 57 54 54 54 54
51 50 50 49 49 49 48 48 48 48 47 47 47 48 48 48 48 48 48 48 49 49 50 50 51 51 52 53 53 54 54 54 55 55 55 56 57 59 61 63 65 67 68 69 69 69 68 68 68 68 69 67 63 57 55 56 59 58 56 55 55 55
55 54 53 53 52 51 51 51 50 50 49 49 48 49 49 50 49 49 49 49 50 51 51 52 53 54 54 55 55 56 56 57 57 57 58 58 58 59 61 62 63 65 66 68 68 69 69 70 69 69 68 67 65 62 58 56 58 60 59 57 57 57
58 58 57 56 55 54 54 54 53 52 52 51 51 51 51 52 51 51 51 51 52 52 53 54 55 55 56 57 57 58 58 58 59 59 60 61 61 62 62 63 64 65 66 67 68 68 68 69 69 70 69 68 66 64 63 59 58 60 62 61 61 60
60 60 60 59 58 58 58 57 56 55 55 54 54 53 54 54 54 53 53 54 54 55 55 56 56 57 57 58 59 60 60 60 60 61 62 63 63 64 65 65 66 66 66 67 68 68 69 68 69 69 69 70 68 65 64 63 61 61 62 64 64 64
Wind_Direction
283 283 284 284 284 284 285 285 285 285 285 284 284 285 286 286 287 287 288 287 286 285 283 282 280 280 280 280 279 279 280 277 268 264 262 258 255 241 230 235 237 246 275 296 300 292 284 282 277 268 252 231 224 222 219 214 213 212 209 209 211 212
282 282 283 283 283 284 284 284 284 284 283 283 284 284 285 286 286 286 286 286 285 284 282 281 280 279 278 278 276 277 277 272 264 261 259 256 247 233 232 234 233 253 282 292 297 289 280 279 274 267 254 235 224 221 218 214 214 213 212 213 212 212
281 281 282 282 283 283 283 283 283 282 282 283 283 284 284 285 285 285 284 284 283 282 281 280 278 277 276 274 271 271 270 265 261 258 256 252 239 232 234 230 237 265 281 290 293 283 275 274 270 264 256 240 227 221 217 214 215 214 214 216 215 215
279 280 281 281 282 282 282 282 282 282 282 282 283 283 284 284 284 283 283 282 282 280 279 279 277 275 273 269 266 265 262 258 256 254 252 246 241 240 233 230 252 273 280 289 289 277 269 269 267 261 257 246 233 224 217 214 215 216 216 217 216 216
278 278 279 280 280 281 281 281 281 281 282 282 282 283 283 283 283 282 281 281 280 279 278 277 276 274 270 266 263 258 254 252 249 246 245 244 247 243 230 238 260 272 279 286 283 271 265 267 264 258 257 250 240 230 220 215 215 217 218 219 219 216
277 278 279 279 279 279 280 280 280 281 281 281 282 282 283 283 282 281 280 280 278 277 275 274 272 271 269 264 259 253 247 245 242 241 244 245 246 242 238 246 258 268 276 279 273 263 262 263 260 258 258 252 246 237 225 218 215 218 220 221 221 219
277 277 277 278 278 278 279 279 279 280 280 281 281 282 282 282 281 280 279 278 276 273 270 267 266 266 266 259 253 249 242 236 236 241 246 246 245 244 244 246 255 266 269 266 260 256 259 259 259 260 260 256 249 244 232 221 216 218 222 222 222 222
276 276 276 276 277 277 278 278 278 279 280 281 281 282 282 281 281 279 278 276 273 269 262 256 256 258 257 252 247 244 238 233 236 242 243 243 244 242 243 248 258 262 258 254 251 251 256 257 260 261 261 259 252 248 239 226 218 219 224 225 224 225
275 275 275 275 275 276 276 277 278 279 279 280 281 281 281 281 279 278 276 273 268 264 255 246 249 251 248 245 243 240 235 232 236 240 239 240 241 241 245 253 258 256 248 246 247 249 254 256 259 260 260 259 252 247 242 229 220 219 224 227 227 227
274 275 275 274 274 275 276 277 278 279 279 280 280 280 280 279 277 275 273 269 264 259 250 237 238 245 245 241 240 239 235 234 236 238 238 238 239 241 246 252 254 249 241 240 244 248 250 255 260 262 260 256 251 247 242 231 222 221 225 229 230 230
273 273 274 274 274 274 275 277 278 279 279 279 278 278 277 276 274 272 269 265 260 253 244 232 230 239 243 239 238 239 236 235 237 237 237 237 238 241 244 249 250 244 238 237 241 243 245 254 263 261 255 252 250 247 243 233 223 222 227 230 232 231
272 272 273 274 275 275 275 276 278 278 277 276 275 274 274 273 272 270 266 261 256 248 238 229 227 232 237 237 235 236 235 233 234 237 239 239 241 242 242 246 247 241 236 235 236 235 237 250 261 260 251 248 248 245 244 237 225 223 226 231 234 233
271 271 272 274 275 276 276 275 275 275 274 273 272 272 272 270 269 267 263 257 251 244 234 227 226 228 233 237 234 233 234 230 230 236 238 240 243 243 242 242 242 239 234 232 230 227 230 245 259 263 254 247 246 244 242 239 230 225 226 230 234 236
269 270 271 272 274 275 275 274 272 270 270 270 270 271 270 268 266 264 261 255 248 241 233 226 225 227 232 236 237 237 238 234 232 237 239 241 243 243 241 238 236 234 230 229 226 222 227 239 256 264 257 249 247 244 241 239 235 229 227 229 233 236
268 269 269 270 271 272 272 272 270 268 267 268 268 269 268 266 264 261 260 256 249 241 234 228 224 225 227 231 236 239 239 238 236 239 242 243 244 241 238 235 232 230 229 228 223 221 224 230 247 257 256 253 251 247 242 240 239 234 230 230 232 235
266 267 267 267 267 268 268 269 268 267 266 265 265 265 265 264 262 260 259 256 251 243 237 232 226 225 225 226 231 235 236 239 241 242 242 242 244 242 239 234 231 229 228 228 223 220 223 227 240 250 253 256 254 250 244 240 240 239 235 232 233 234
265 265 265 264 264 264 264 265 265 266 265 264 262 261 261 261 261 258 256 254 251 245 239 236 231 228 226 225 227 230 232 235 239 242 241 241 242 243 241 235 230 230 229 225 221 219 221 228 238 245 250 256 255 251 246 242 240 240 238 234 233 234
263 262 262 261 260 260 261 261 262 263 264 264 262 260 258 258 259 257 254 251 249 246 242 239 235 231 228 226 226 227 228 227 229 237 240 239 239 239 239 234 228 226 224 221 219 217 218 225 236 241 247 256 258 255 250 246 242 240 240 238 235 235
261 259 258 257 257 257 258 259 260 261 262 263 262 260 257 256 256 256 254 250 248 247 243 242 240 236 232 229 225 225 226 223 223 231 235 234 235 236 236 233 229 221 216 218 218 215 215 222 232 238 244 252 257 256 253 249 247 243 241 241 239 236
259 257 255 255 255 255 256 257 258 259 260 260 260 259 258 255 253 252 252 249 247 246 245 243 242 240 236 232 227 225 226 224 221 223 227 229 230 231 231 232 231 220 211 216 218 214 214 218 227 236 242 245 250 255 256 254 250 246 243 242 241 239
257 255 255 254 254 254 255 255 256 257 257 258 258 257 256 255 252 250 249 248 246 245 245 243 242 242 239 235 230 227 228 228 225 222 224 225 223 225 226 228 228 219 210 212 215 215 216 216 222 232 238 237 244 255 259 258 253 247 245 243 242 242
255 254 254 254 254 254 254 254 254 255 256 256 256 256 255 253 251 249 247 246 244 243 244 244 243 242 241 238 234 229 227 229 228 226 225 222 219 221 223 223 225 222 216 214 215 217 219 220 220 224 231 234 241 251 255 256 254 248 245 244 242 243
253 253 253 253 253 253 253 253 253 254 254 254 254 254 254 252 251 248 246 245 243 242 241 242 241 241 240 238 236 232 227 226 227 227 226 223 218 219 220 221 225 227 225 221 218 219 223 226 224 223 229 235 238 245 250 251 252 249 246 245 243 244
253 252 252 252 252 252 252 252 252 252 252 252 253 253 252 252 250 248 246 244 242 241 240 239 239 238 238 237 235 233 229 225 225 225 224 222 218 218 219 219 222 226 229 226 222 223 230 234 235 235 238 240 240 244 247 247 249 250 247 246 245 245
254 253 252 252 251 251 251 250 250 250 250 251 252 252 251 250 249 248 246 243 241 240 239 238 236 236 235 235 234 233 231 228 225 223 222 220 217 217 219 218 220 224 228 227 222 224 233 236 237 241 244 246 247 246 244 245 248 250 249 247 247 248
253 253 252 251 251 250 250 250 249 249 249 249 250 251 251 250 248 247 246 244 241 239 238 237 236 235 233 233 232 231 230 229 228 224 221 220 219 217 218 219 221 222 225 226 223 224 233 238 238 241 246 248 251 250 244 243 248 249 249 249 249 250
252 252 251 250 249 249 249 249 249 249 249 248 248 249 249 249 248 246 244 243 242 239 237 236 235 234 233 232 231 230 229 229 229 226 223 222 221 219 218 220 222 223 224 225 225 227 233 238 238 240 244 248 253 253 248 246 249 249 249 250 251 251
251 250 250 249 248 248 248 248 248 248 248 248 247 247 247 248 248 246 243 242 242 241 238 236 235 234 233 233 232 230 230 229 230 228 224 224 224 223 221 220 221 223 225 226 227 230 234 237 238 239 242 247 252 255 254 251 250 249 249 250 252 253
251 250 249 248 247 247 247 247 248 248 247 247 246 246 246 246 246 246 244 241 240 240 239 238 236 235 234 233 233 232 231 230 230 230 227 225 226 226 225 224 222 222 224 226 228 231 235 237 239 241 243 246 249 253 254 253 250 248 249 250 251 253
253 251 249 249 247 247 247 247 248 248 247 246 246 246 245 245 245 245 245 243 240 239 239 239 238 237 236 234 234 233 233 232 231 231 230 228 228 229 229 228 227 225 224 225 227 230 233 236 239 242 244 246 248 251 253 253 252 250 249 250 251 251
255 253 251 250 248 247 247 247 247 248 248 247 246 246 245 244 244 244 244 244 242 240 238 238 238 238 238 237 236 235 234 234 233 232 232 231 230 231 232 232 233 232 230 229 230 231 232 235 238 240 243 245 247 250 252 252 252 251 249 249 249 248
256 255 253 251 250 248 247 247 247 248 248 248 248 247 246 244 244 244 244 243 243 242 241 239 238 238 238 239 238 238 237 236 235 234 234 233 233 233 234 235 236 237 237 236 235 235 236 236 237 239 242 244 246 247 249 250 251 251 249 248 247 245
255 255 254 252 251 250 249 248 248 248 249 249 249 249 248 246 245 244 243 243 243 243 242 241 240 239 238 238 238 239 239 239 238 237 236 235 235 235 236 237 238 239 240 241 240 240 241 240 240 240 241 244 246 244 244 246 248 248 247 246 245 243
256 255 254 253 252 251 250 249 249 249 249 249 249 249 249 248 247 245 244 243 243 243 242 242 242 241 240 239 239 239 239 239 240 240 239 238 238 238 238 238 239 240 241 243 244 244 244 244 244 243 244 246 247 246 243 242 244 246 245 244 244 243
257 256 255 254 254 253 252 251 251 250 249 249 249 249 249 249 248 247 246 245 244 244 243 243 243 243 242 242 242 241 240 239 239 240 241 241 241 240 240 240 240 241 242 243 244 245 246 246 246 246 246 247 249 248 245 241 240 242 243 243 243 244
257 257 256 256 255 254 253 253 252 252 251 249 248 248 248 249 248 248 248 247 246 246 245 245 244 244 244 243 243 243 243 241 240 240 240 241 242 242 242 242 241 242 242 243 244 245 246 247 247 247 247 248 249 249 247 243 239 239 241 242 242 244
255 256 256 256 255 255 254 253 253 253 252 251 250 249 249 249 249 249 248 248 248 248 247 247 247 246 245 245 245 245 245 244 243 243 242 242 242 242 243 244 244 243 243 243 244 245 246 247 247 247 248 248 249 248 247 245 242 239 239 240 242 243
Height
10773 10772 10771 10772 10773 10774 10775 10776 10776 10777 10776 10775 10774 10774 10775 10775 10775 10775 10775 10774 10773 10773 10774 10774 10774 10774 10773 10773 10773 10775 10777 10778 10779 10780 10782 10784 10785 10786 10788 10789 10789 10789 10789 10788 10788 10788 10788 10788 10787 10787 10787 10787 10787 10788 10791 10793 10793 10794 10795 10796 10797 10799
10766 10764 10764 10764 10764 10765 10767 10768 10768 10768 10768 10767 10767 10767 10768 10769 10769 10770 10769 10768 10766 10766 10767 10767 10768 10768 10768 10768 10769 10771 10773 10774 10775 10777 10778 10780 10781 10783 10784 10785 10786 10785 10785 10785 10785 10786 10786 10785 10785 10785 10784 10784 10784 10786 10789 10790 10790 10791 10793 10794 10796 10797
10758 10756 10756 10756 10756 10757 10759 10760 10760 10760 10760 10760 10760 10761 10762 10763 10763 10763 10763 10762 10760 10759 10760 10760 10761 10763 10763 10764 10765 10767 10769 10770 10772 10773 10774 10776 10778 10779 10781 10782 10782 10782 10782 10783 10783 10783 10783 10783 10783 10783 10782 10781 10781 10783 10786 10788 10788 10789 10791 10792 10794 10795
10751 10749 10749 10749 10748 10748 10750 10751 10752 10752 10753 10753 10753 10754 10755 10757 10757 10757 10756 10756 10755 10754 10753 10754 10755 10757 10759 10760 10762 10763 10764 10766 10767 10769 10771 10773 10774 10776 10777 10778 10779 10779 10780 10780 10780 10780 10780 10780 10781 10780 10779 10779 10779 10780 10783 10785 10785 10786 10788 10790 10791 10792
10745 10744 10743 10742 10741 10741 10742 10743 10744 10745 10745 10745 10745 10747 10749 10750 10750 10750 10750 10750 10750 10749 10748 10749 10750 10752 10755 10756 10758 10759 10760 10761 10763 10764 10767 10769 10771 10773 10774 10775 10776 10777 10777 10778 10778 10777 10777 10778 10778 10778 10777 10777 10777 10778 10780 10781 10783 10784 10786 10787 10788 10790
10739 10737 10736 10735 10734 10734 10735 10737 10738 10738 10737 10737 10738 10740 10742 10743 10743 10743 10743 10744 10746 10745 10744 10745 10745 10747 10750 10753 10754 10755 10756 10758 10759 10761 10764 10766 10768 10769 10771 10771 10773 10774 10775 10775 10775 10774 10774 10775 10776 10775 10775 10774 10774 10776 10777 10779 10780 10782 10783 10784 10786 10788
10732 10730 10728 10727 10727 10728 10728 10730 10731 10731 10731 10730 10731 10733 10735 10736 10737 10736 10737 10738 10740 10741 10741 10741 10742 10743 10745 10748 10750 10751 10753 10755 10757 10759 10761 10762 10764 10766 10767 10768 10769 10771 10772 10772 10771 10771 10771 10773 10773 10773 10773 10772 10772 10773 10775 10776 10778 10779 10780 10781 10783 10785
10723 10723 10722 10720 10720 10721 10722 10723 10724 10725 10725 10724 10724 10726 10728 10729 10729 10730 10731 10732 10735 10737 10738 10739 10739 10740 10741 10744 10746 10747 10750 10753 10754 10756 10757 10758 10760 10762 10763 10764 10765 10767 10768 10768 10768 10768 10769 10770 10770 10770 10770 10770 10769 10770 10772 10773 10775 10776 10777 10778 10781 10782
10714 10713 10716 10715 10714 10715 10715 10716 10718 10718 10719 10718 10718 10719 10721 10722 10722 10723 10725 10726 10729 10731 10734 10737 10738 10736 10737 10740 10742 10745 10748 10750 10751 10753 10753 10754 10757 10759 10759 10760 10761 10763 10764 10764 10764 10765 10766 10767 10768 10768 10767 10767 10767 10766 10768 10770 10772 10773 10774 10775 10778 10780
10708 10705 10706 10708 10708 10709 10709 10710 10711 10712 10713 10713 10712 10713 10714 10715 10715 10717 10719 10720 10723 10726 10729 10732 10734 10733 10733 10737 10739 10741 10744 10746 10747 10749 10750 10751 10754 10755 10756 10756 10757 10758 10759 10760 10761 10762 10763 10764 10764 10765 10764 10763 10764 10764 10765 10768 10770 10771 10771 10772 10775 10777
10702 10700 10698 10699 10701 10703 10704 10704 10705 10706 10707 10707 10706 10707 10708 10709 10709 10711 10714 10715 10717 10721 10724 10726 10730 10729 10728 10731 10735 10737 10740 10742 10744 10746 10747 10749 10751 10752 10753 10753 10754 10755 10756 10756 10757 10759 10760 10761 10761 10761 10760 10760 10760 10761 10762 10765 10767 10768 10769 10770 10771 10773
10695 10695 10693 10692 10692 10695 10699 10700 10700 10700 10700 10701 10700 10701 10703 10704 10703 10706 10708 10710 10712 10715 10719 10722 10724 10722 10720 10724 10730 10733 10735 10738 10741 10743 10744 10745 10747 10748 10749 10750 10751 10752 10753 10753 10754 10756 10757 10757 10758 10757 10757 10756 10756 10757 10759 10761 10764 10765 10766 10767 10768 10770
10689 10689 10689 10687 10686 10687 10691 10695 10695 10694 10694 10695 10695 10696 10698 10700 10699 10700 10702 10704 10707 10710 10714 10717 10716 10715 10717 10720 10725 10727 10730 10734 10737 10739 10740 10741 10743 10744 10745 10746 10747 10748 10749 10751 10752 10753 10753 10754 10755 10755 10754 10753 10753 10754 10755 10757 10760 10762 10763 10764 10766 10768
10684 10685 10685 10684 10682 10681 10683 10687 10689 10689 10688 10689 10691 10692 10693 10695 10695 10695 10696 10699 10702 10704 10708 10710 10711 10713 10716 10718 10719 10721 10726 10730 10733 10735 10736 10738 10739 10741 10741 10743 10744 10745 10746 10748 10749 10750 10750 10751 10752 10752 10752 10751 10750 10750 10751 10753 10755 10758 10760 10761 10763 10765
10679 10680 10680 10679 10678 10677 10677 10679 10681 10683 10684 10685 10687 10688 10688 10689 10690 10690 10691 10694 10697 10700 10702 10704 10707 10710 10713 10715 10715 10716 10722 10726 10728 10730 10732 10733 10735 10737 10737 10739 10741 10742 10744 10745 10746 10746 10746 10747 10748 10749 10749 10748 10748 10748 10748 10750 10751 10754 10756 10758 10760 10761
10674 10675 10675 10675 10674 10673 10672 10673 10675 10677 10679 10682 10683 10684 10684 10684 10685 10687 10688 10690 10692 10695 10696 10699 10702 10705 10708 10711 10710 10712 10718 10721 10723 10724 10726 10728 10730 10732 10733 10735 10737 10739 10741 10741 10742 10742 10742 10743 10744 10746 10746 10746 10746 10745 10746 10747 10748 10750 10753 10755 10756 10757
10669 10670 10670 10670 10670 10668 10668 10669 10670 10672 10674 10677 10679 10680 10681 10680 10680 10682 10684 10686 10687 10689 10691 10693 10696 10699 10702 10705 10707 10709 10714 10716 10718 10718 10719 10722 10725 10725 10727 10730 10732 10734 10737 10737 10738 10738 10738 10739 10741 10742 10744 10744 10743 10743 10743 10744 10745 10746 10748 10750 10752 10753
10665 10666 10666 10665 10665 10665 10665 10665 10666 10667 10669 10671 10674 10676 10677 10677 10676 10678 10680 10682 10683 10685 10686 10687 10690 10693 10696 10699 10703 10706 10708 10712 10714 10714 10715 10718 10719 10720 10722 10725 10727 10730 10733 10734 10734 10735 10735 10736 10737 10739 10740 10741 10741 10741 10741 10741 10742 10743 10744 10745 10747 10749
10661 10661 10661 10661 10662 10661 10661 10661 10662 10663 10665 10667 10669 10671 10673 10674 10673 10674 10676 10678 10679 10681 10682 10684 10686 10688 10690 10693 10697 10701 10704 10708 10711 10711 10712 10713 10714 10715 10718 10721 10723 10726 10729 10729 10730 10731 10732 10733 10733 10735 10736 10737 10738 10738 10739 10739 10739 10740 10740 10742 10743 10745
10656 10656 10657 10658 10658 10658 10658 10658 10658 10659 10661 10663 10664 10666 10668 10670 10671 10671 10672 10674 10675 10677 10678 10681 10682 10683 10685 10688 10692 10695 10698 10702 10705 10707 10708 10709 10711 10711 10714 10717 10720 10723 10724 10724 10726 10727 10728 10729 10729 10730 10732 10734 10734 10735 10736 10737 10737 10737 10737 10738 10739 10741
10651 10652 10653 10654 10655 10655 10654 10654 10655 10656 10658 10659 10660 10662 10664 10666 10667 10668 10669 10670 10672 10673 10675 10677 10678 10679 10681 10684 10687 10690 10693 10696 10700 10702 10704 10706 10707 10708 10710 10713 10716 10718 10719 10719 10721 10723 10724 10725 10725 10727 10728 10730 10731 10732 10733 10733 10734 10734 10734 10735 10736 10737
10647 10648 10650 10650 10651 10651 10651 10651 10651 10652 10654 10655 10656 10658 10660 10662 10663 10665 10665 10667 10668 10670 10671 10673 10674 10676 10677 10680 10683 10686 10689 10691 10694 10697 10700 10702 10704 10704 10706 10708 10710 10712 10714 10715 10717 10718 10719 10720 10722 10724 10724 10726 10728 10729 10730 10730 10730 10731 10731 10731 10732 10733
10643 10644 10646 10647 10647 10647 10647 10647 10648 10649 10650 10652 10653 10653 10655 10657 10659 10661 10662 10663 10665 10666 10668 10669 10671 10672 10674 10676 10678 10681 10684 10687 10689 10692 10695 10699 10700 10701 10702 10703 10705 10707 10710 10712 10713 10714 10715 10716 10718 10720 10721 10722 10724 10726 10727 10727 10727 10727 10728 10728 10728 10729
10638 10640 10642 10643 10643 10644 10644 10644 10644 10645 10646 10648 10648 10650 10651 10653 10655 10657 10658 10659 10661 10663 10664 10666 10668 10669 10671 10673 10675 10677 10680 10682 10684 10686 10690 10694 10696 10697 10698 10699 10701 10703 10705 10707 10710 10710 10709 10710 10714 10716 10717 10718 10720 10723 10724 10723 10723 10724 10725 10724 10724 10725
10633 10635 10637 10638 10639 10640 10640 10640 10640 10641 10643 10644 10644 10645 10647 10649 10651 10652 10654 10656 10657 10659 10660 10662 10664 10666 10667 10669 10671 10673 10675 10678 10679 10682 10684 10688 10691 10693 10694 10695 10697 10699 10701 10703 10704 10704 10703 10705 10709 10710 10712 10714 10717 10719 10719 10719 10720 10722 10722 10721 10721 10722
10629 10630 10633 10634 10634 10635 10636 10636 10637 10637 10639 10640 10640 10641 10642 10644 10646 10648 10650 10652 10653 10655 10656 10658 10660 10662 10664 10666 10667 10669 10671 10673 10675 10677 10679 10682 10686 10688 10689 10691 10692 10694 10696 10698 10699 10699 10698 10701 10705 10705 10705 10710 10712 10712 10714 10716 10717 10719 10719 10718 10718 10718
10624 10625 10627 10629 10630 10631 10631 10632 10632 10634 10635 10636 10636 10637 10638 10639 10641 10643 10645 10647 10649 10651 10652 10654 10656 10658 10660 10661 10663 10665 10667 10669 10671 10672 10675 10677 10680 10683 10684 10686 10687 10688 10691 10693 10694 10694 10694 10697 10700 10700 10701 10705 10706 10706 10709 10712 10713 10715 10716 10715 10714 10714
10620 10621 10622 10624 10625 10626 10627 10627 10628 10629 10631 10632 10632 10633 10633 10634 10636 10638 10640 10642 10644 10646 10648 10650 10652 10653 10655 10657 10659 10661 10663 10664 10666 10668 10670 10672 10674 10677 10679 10680 10682 10683 10686 10688 10689 10689 10689 10691 10694 10695 10697 10700 10701 10702 10704 10707 10709 10711 10712 10712 10711 10711
10614 10616 10617 10618 10620 10621 10622 10623 10623 10624 10626 10627 10627 10628 10629 10630 10631 10633 10635 10637 10639 10641 10643 10645 10647 10648 10650 10652 10653 10655 10657 10659 10661 10663 10665 10667 10669 10671 10673 10674 10676 10678 10680 10683 10684 10685 10685 10687 10688 10689 10693 10696 10697 10698 10699 10702 10705 10706 10707 10708 10708 10707
10609 10611 10612 10612 10614 10616 10617 10618 10618 10619 10621 10622 10623 10623 10624 10625 10626 10627 10629 10631 10633 10636 10638 10640 10641 10643 10644 10646 10648 10650 10652 10654 10655 10657 10660 10662 10663 10665 10666 10668 10669 10671 10674 10676 10678 10680 10680 10682 10683 10684 10687 10690 10692 10693 10694 10697 10699 10701 10703 10704 10704 10704
10603 10605 10606 10607 10607 10609 10611 10612 10612 10613 10615 10617 10618 10618 10619 10620 10621 10622 10624 10625 10628 10630 10632 10634 10636 10637 10639 10640 10642 10644 10646 10647 10649 10651 10653 10655 10657 10658 10660 10662 10663 10665 10667 10669 10671 10673 10675 10676 10679 10680 10681 10684 10686 10687 10689 10691 10692 10694 10698 10700 10700 10700
10597 10600 10601 10601 10602 10603 10605 10606 10607 10608 10609 10611 10612 10613 10614 10615 10616 10618 10619 10620 10622 10624 10626 10627 10629 10631 10632 10634 10635 10637 10639 10641 10643 10645 10647 10649 10651 10652 10654 10655 10657 10659 10661 10663 10665 10666 10667 10670 10673 10675 10676 10678 10680 10682 10683 10684 10685 10689 10692 10694 10695 10697
10592 10593 10595 10596 10597 10597 10599 10601 10601 10602 10604 10605 10606 10607 10608 10610 10611 10613 10614 10615 10616 10617 10619 10620 10622 10624 10625 10627 10629 10630 10632 10634 10636 10638 10640 10642 10644 10645 10647 10649 10651 10652 10654 10656 10658 10659 10660 10663 10665 10668 10669 10671 10673 10675 10676 10677 10679 10682 10685 10687 10690 10691
10585 10586 10588 10589 10591 10592 10593 10595 10596 10597 10598 10599 10601 10601 10602 10604 10606 10607 10608 10610 10610 10611 10612 10614 10615 10616 10618 10620 10621 10623 10625 10627 10629 10631 10633 10635 10636 10638 10640 10642 10644 10645 10647 10649 10650 10652 10654 10656 10658 10660 10662 10664 10666 10668 10670 10671 10673 10676 10679 10681 10684 10685
10577 10579 10581 10583 10585 10586 10587 10588 10589 10591 10592 10593 10594 10595 10596 10597 10599 10601 10602 10604 10605 10605 10606 10607 10608 10609 10611 10612 10614 10616 10618 10620 10622 10624 10626 10627 10629 10630 10632 10634 10636 10638 10640 10641 10643 10644 10646 10648 10651 10653 10656 10658 10660 10661 10663 10665 10667 10669 10672 10675 10677 10678
10569 10570 10572 10575 10578 10579 10580 10581 10582 10584 10586 10587 10588 10589 10589 10590 10592 10594 10596 10597 10598 10599 10600 10600 10601 10602 10604 10605 10606 10608 10610 10613 10615 10617 10618 10619 10621 10622 10623 10625 10627 10630 10632 10633 10635 10637 10639 10641 10643 10646 10648 10651 10653 10654 10656 10659 10661 10663 10666 10668 10670 10672
10562 10562 10564 10567 10569 10570 10571 10573 10575 10577 10579 10580 10582 10583 10583 10584 10585 10587 10589 10590 10591 10592 10593 10593 10594 10595 10597 10598 10600 10601 10603 10605 10608 10610 10611 10612 10613 10614 10615 10616 10618 10621 10623 10625 10627 10629 10631 10634 10636 10638 10641 10643 10645 10647 10649 10652 10654 10656 10659 10661 10663 10665